Stündliche Wetter Abasolo

Heute, 28 Februar, Sonntag

Zeit Temperatur Niederschläge Wind Luftdruck Luftfeuchtigkeit
00:00 +14°C° 0 mm 1 m/S 619 mmHg 56%
01:00 +13°C° 0 mm 1 m/S 618 mmHg 62%
02:00 +12°C° 0 mm 1 m/S 618 mmHg 67%
03:00 +11°C° 0 mm 1 m/S 618 mmHg 70%
04:00 +10°C° 0 mm 0 m/S 618 mmHg 74%
05:00 +9°C° 0 mm 0 m/S 618 mmHg 76%
06:00 +13°C° 0 mm 0 m/S 619 mmHg 65%
07:00 +16°C° 0 mm 0 m/S 621 mmHg 53%
08:00 +19°C° 0 mm 0 m/S 622 mmHg 41%
09:00 +25°C° 0 mm 1 m/S 623 mmHg 34%
10:00 +29°C° 0 mm 1 m/S 624 mmHg 27%
11:00 +32°C° 0 mm 1 m/S 625 mmHg 19%
12:00 +33°C° 0 mm 1 m/S 624 mmHg 18%
13:00 +35°C° 0 mm 2 m/S 623 mmHg 16%
14:00 +35°C° 0 mm 2 m/S 622 mmHg 14%
15:00 +34°C° 0 mm 3 m/S 622 mmHg 16%
16:00 +33°C° 0 mm 3 m/S 622 mmHg 17%
17:00 +32°C° 0 mm 4 m/S 621 mmHg 19%
18:00 +27°C° 0 mm 3 m/S 621 mmHg 25%
19:00 +24°C° 0 mm 2 m/S 620 mmHg 32%
20:00 +20°C° 0 mm 1 m/S 620 mmHg 38%
21:00 +18°C° 0 mm 1 m/S 620 mmHg 43%
22:00 +16°C° 0 mm 1 m/S 620 mmHg 47%
23:00 +15°C° 0 mm 1 m/S 620 mmHg 52%

Morgen, 1 März, Montag

Zeit Temperatur Niederschläge Wind Luftdruck Luftfeuchtigkeit
00:00 +14°C° 0 mm 1 m/S 619 mmHg 55%
01:00 +13°C° 0 mm 1 m/S 619 mmHg 59%
02:00 +12°C° 0 mm 1 m/S 618 mmHg 62%
03:00 +10°C° 0 mm 0 m/S 618 mmHg 64%
04:00 +10°C° 0 mm 0 m/S 618 mmHg 66%
05:00 +9°C° 0 mm 0 m/S 618 mmHg 69%
06:00 +12°C° 0 mm 0 m/S 619 mmHg 58%
07:00 +16°C° 0 mm 0 m/S 620 mmHg 47%
08:00 +19°C° 0 mm 0 m/S 622 mmHg 36%
09:00 +23°C° 0 mm 0 m/S 623 mmHg 29%
10:00 +27°C° 0 mm 0 m/S 624 mmHg 22%
11:00 +33°C° 0 mm 1 m/S 625 mmHg 15%
12:00 +34°C° 0 mm 1 m/S 624 mmHg 14%
13:00 +35°C° 0 mm 1 m/S 624 mmHg 13%
14:00 +35°C° 0 mm 1 m/S 623 mmHg 11%
15:00 +34°C° 0 mm 1 m/S 622 mmHg 12%
16:00 +34°C° 0 mm 2 m/S 622 mmHg 13%
17:00 +31°C° 0 mm 2 m/S 621 mmHg 13%
18:00 +27°C° 0 mm 2 m/S 621 mmHg 19%
19:00 +23°C° 0 mm 1 m/S 620 mmHg 25%
20:00 +19°C° 0 mm 1 m/S 619 mmHg 31%
21:00 +18°C° 0 mm 1 m/S 619 mmHg 47%
22:00 +15°C° 0 mm 1 m/S 619 mmHg 63%
23:00 +14°C° 0 mm 1 m/S 619 mmHg 79%

übermorgen, 2 März, Dienstag

Zeit Temperatur Niederschläge Wind Luftdruck Luftfeuchtigkeit
00:00 +14°C° 0 mm 1 m/S 619 mmHg 83%
01:00 +13°C° 0 mm 1 m/S 619 mmHg 88%
02:00 +13°C° 0 mm 1 m/S 618 mmHg 92%
03:00 +13°C° 0 mm 1 m/S 618 mmHg 92%
04:00 +12°C° 0 mm 1 m/S 618 mmHg 93%
05:00 +12°C° 0 mm 1 m/S 618 mmHg 93%
06:00 +15°C° 0 mm 1 m/S 620 mmHg 84%
07:00 +18°C° 0 mm 1 m/S 621 mmHg 76%
08:00 +21°C° 0 mm 1 m/S 623 mmHg 67%
09:00 +25°C° 0 mm 1 m/S 623 mmHg 52%
10:00 +29°C° 0 mm 1 m/S 624 mmHg 37%
11:00 +33°C° 0 mm 1 m/S 625 mmHg 23%
12:00 +35°C° 0 mm 2 m/S 625 mmHg 19%
13:00 +35°C° 0 mm 2 m/S 624 mmHg 16%
14:00 +36°C° 0 mm 3 m/S 623 mmHg 13%
15:00 +35°C° 0 mm 3 m/S 623 mmHg 13%
16:00 +33°C° 0 mm 4 m/S 622 mmHg 14%
17:00 +32°C° 0 mm 4 m/S 622 mmHg 15%
18:00 +27°C° 0 mm 3 m/S 621 mmHg 24%
19:00 +23°C° 0 mm 2 m/S 621 mmHg 33%
20:00 +18°C° 0 mm 1 m/S 620 mmHg 42%
21:00 +16°C° 0 mm 1 m/S 620 mmHg 52%
22:00 +14°C° 0 mm 0 m/S 620 mmHg 61%
23:00 +13°C° 0 mm 0 m/S 620 mmHg 71%

3 März, Mittwoch

Zeit Temperatur Niederschläge Wind Luftdruck Luftfeuchtigkeit
00:00 +12°C° 0 mm 0 m/S 620 mmHg 75%
01:00 +11°C° 0 mm 0 m/S 619 mmHg 78%
02:00 +11°C° 0 mm 0 m/S 619 mmHg 82%
03:00 +10°C° 0 mm 0 m/S 619 mmHg 84%
04:00 +10°C° 0 mm 0 m/S 619 mmHg 86%
05:00 +9°C° 0 mm 0 m/S 619 mmHg 88%
06:00 +12°C° 0 mm 0 m/S 620 mmHg 78%
07:00 +16°C° 0 mm 1 m/S 622 mmHg 68%
08:00 +19°C° 0 mm 1 m/S 623 mmHg 58%
09:00 +24°C° 0 mm 1 m/S 624 mmHg 44%
10:00 +29°C° 0 mm 1 m/S 625 mmHg 31%
11:00 +33°C° 0 mm 1 m/S 626 mmHg 17%
12:00 +34°C° 0 mm 1 m/S 625 mmHg 15%
13:00 +34°C° 0 mm 1 m/S 625 mmHg 13%
14:00 +36°C° 0 mm 2 m/S 624 mmHg 11%
15:00 +35°C° 0 mm 2 m/S 623 mmHg 11%
16:00 +34°C° 0 mm 2 m/S 623 mmHg 12%
17:00 +32°C° 0 mm 2 m/S 622 mmHg 12%
18:00 +28°C° 0 mm 2 m/S 622 mmHg 18%
19:00 +24°C° 0 mm 2 m/S 622 mmHg 23%
20:00 +20°C° 0 mm 1 m/S 621 mmHg 29%
21:00 +18°C° 0 mm 1 m/S 621 mmHg 35%
22:00 +16°C° 0 mm 1 m/S 621 mmHg 41%
23:00 +15°C° 0 mm 1 m/S 621 mmHg 48%

4 März, Donnerstag

Zeit Temperatur Niederschläge Wind Luftdruck Luftfeuchtigkeit
00:00 +14°C° 0 mm 1 m/S 621 mmHg 52%
01:00 +12°C° 0 mm 0 m/S 621 mmHg 56%
02:00 +11°C° 0 mm 0 m/S 621 mmHg 61%
03:00 +10°C° 0 mm 0 m/S 620 mmHg 65%
04:00 +10°C° 0 mm 0 m/S 620 mmHg 68%
05:00 +9°C° 0 mm 0 m/S 620 mmHg 72%
06:00 +12°C° 0 mm 0 m/S 622 mmHg 63%
07:00 +15°C° 0 mm 0 m/S 623 mmHg 54%
08:00 +20°C° 0 mm 1 m/S 624 mmHg 45%
09:00 +24°C° 0 mm 1 m/S 625 mmHg 37%
10:00 +27°C° 0 mm 2 m/S 626 mmHg 28%
11:00 +31°C° 0 mm 2 m/S 626 mmHg 20%
12:00 +32°C° 0 mm 2 m/S 626 mmHg 18%
13:00 +34°C° 0 mm 2 m/S 625 mmHg 15%
14:00 +36°C° 0 mm 2 m/S 625 mmHg 13%
15:00 +35°C° 0 mm 2 m/S 624 mmHg 14%
16:00 +34°C° 0 mm 3 m/S 624 mmHg 14%
17:00 +33°C° 0 mm 3 m/S 624 mmHg 15%
18:00 +28°C° 0 mm 3 m/S 623 mmHg 24%
19:00 +24°C° 0 mm 2 m/S 622 mmHg 33%
20:00 +19°C° 0 mm 2 m/S 622 mmHg 42%
21:00 +17°C° 0 mm 2 m/S 621 mmHg 48%
22:00 +16°C° 0 mm 2 m/S 621 mmHg 53%
23:00 +14°C° 0 mm 1 m/S 621 mmHg 59%

5 März, Freitag

Zeit Temperatur Niederschläge Wind Luftdruck Luftfeuchtigkeit
00:00 +13°C° 0 mm 1 m/S 620 mmHg 64%
01:00 +12°C° 0 mm 1 m/S 620 mmHg 69%
02:00 +10°C° 0 mm 0 m/S 619 mmHg 74%
03:00 +10°C° 0 mm 0 m/S 619 mmHg 76%
04:00 +9°C° 0 mm 0 m/S 619 mmHg 78%
05:00 +9°C° 0 mm 0 m/S 619 mmHg 80%
06:00 +12°C° 0 mm 0 m/S 620 mmHg 68%
07:00 +16°C° 0 mm 1 m/S 621 mmHg 57%
08:00 +20°C° 0 mm 1 m/S 623 mmHg 45%
09:00 +24°C° 0 mm 1 m/S 624 mmHg 36%
10:00 +29°C° 0 mm 1 m/S 625 mmHg 27%
11:00 +33°C° 0 mm 1 m/S 626 mmHg 18%
12:00 +34°C° 0 mm 2 m/S 625 mmHg 17%
13:00 +35°C° 0 mm 2 m/S 624 mmHg 15%
14:00 +36°C° 0 mm 3 m/S 623 mmHg 14%
15:00 +34°C° 0 mm 3 m/S 622 mmHg 15%
16:00 +33°C° 0 mm 3 m/S 622 mmHg 15%
17:00 +31°C° 0 mm 3 m/S 621 mmHg 16%
18:00 +28°C° 0 mm 3 m/S 621 mmHg 20%
19:00 +24°C° 0 mm 2 m/S 620 mmHg 25%
20:00 +21°C° 0 mm 1 m/S 620 mmHg 29%
21:00 +20°C° 0 mm 1 m/S 619 mmHg 32%
22:00 +18°C° 0 mm 1 m/S 619 mmHg 35%
23:00 +16°C° 0 mm 1 m/S 619 mmHg 38%
Mehr zeigen

Wir brauchen deine Erlaubnis

Meteoprog und unser Service Anbieter werden persönliche Daten aufbewahren, so wie Cookies, Geräte Bezeichnung oder ähnliche Technologien von deinem Gerät und Prozess, so wie Persönliche Daten Inhalte und Werbungen, genauso wie social Media und den Verkehr zu analysieren.

  • Aufbewahrung und/oder Zugang zu deiner Geräte Informationen.

    Cookies, Geräte Bezeichnung oder andere Informationen, können aufbewahrt oder Zugang zu deinem Gerät erhalten, für den Grund, der oben angegeben wird.

  • Personalisierte Werbung und Inhalte, Messungen, Einblick in das Publikum und Produkt Entwicklung.

    Werbungen und Inhalte können personalisiert werden, basierend auf ein Profil. Mehr Daten können besser personalisierte Werbungen und Inhalte hinzufügen. Werbung und Inhalte können gezeigt und gemessen werden. Einblicke über das Publikum, welche die Werbung gesehen haben und den Inhalt, können abgeleitet werden. So wie Daten können genutzt werden, um es zu verbessern oder die Benutzer Erfahrung zu verbessern das System und die Software.

Wenn du “Ich stimme zu” klickst, erlaubst du uns, die Cookies zu benutzen die Geräte Bezeichnung, den Web oder ähnliche Technologien zu benutzen. Deine Settings, können in deinem Gerät bei deinem Browser geändert werden.

Für den bestimmten Zweck, berechtigten Interessen beruhen darauf, mehr als auf den Inhalt. Du kannst mehr darüber in unseren Privaten und Cookie Politik lesen.